Find Starlink 37246

NORAD ID: 68607 Int'l Des: 2026-073 Owner: SPXS Country: US Constellation: starlink operational
LEOCIRCULARRETROGRADE

当前视图

正在加载3D地球...

About Starlink 37246

Starlink 37246 (NORAD 68607) is a starlink constellation satellite (v2 mini) launched Apr 7, 2026 by SPXS of US. It operates in LEO, CIRCULAR, RETROGRADE orbit with a mass of 575.00 kg.

即将过境

Passes for default location (London). Set your location on the main map for personalized predictions.

高度历史

Loading altitude history...

两行轨道根数

1 68607U 26073F 26237.98002713 .00025125 00000-0 77766-3 0 9996
2 68607 97.2896 76.4099 0002137 61.7960 298.3498 15.33457052 21839
Epoch: Aug 25, 2026 • Age: 9 hours

当前状态

高度 468.2 km
远地点 / 近地点 N/A
速度 7.63 km/s
星下点 14.74°N, 163.06°E
发射日期 Apr 7, 2026
运行时间 0.3 years
类型 internet

技术详情

分类 Payload
质量 575.00 kg
干质量 530.00 kg
总质量 575.00 kg
长度 0.30 m
直径 4.10 m
跨度 29.00 m
形状 Box + pan
制造商 SPXS
平台类型 Starlink V2MO
阶段状态 In Orbit
所有者/国家 SPXS/US

Most Searched